Temperature
18 19 20 20 21 19 19 18 18 18 18 18 17 17 18 18 18 18 19 19 20 20 20 20 20 19 19 19 19 19 19 19 19 18 18 18 18 18 18 17 17 17 17 17
19 19 20 20 20 20 19 19 18 18 18 17 17 17 17 18 18 18 18 19 19 19 19 19 19 19 19 19 18 18 18 18 18 18 17 17 17 17 17 17 17 17 17 17
17 18 20 19 19 19 19 18 18 18 18 17 16 16 16 17 17 18 18 19 19 19 19 19 19 19 19 18 18 18 18 17 17 17 17 17 16 16 16 16 16 16 16 16
15 18 19 18 18 18 18 17 17 17 16 16 16 16 17 17 17 17 17 18 18 18 18 19 18 18 18 18 18 18 17 17 17 17 17 16 16 16 16 16 16 16 16 16
14 16 17 18 18 18 18 17 17 16 16 16 16 16 16 17 17 17 17 17 18 18 18 18 18 18 18 17 17 17 17 17 17 16 16 16 16 16 16 16 16 16 16 16
13 16 16 17 18 18 17 17 17 16 15 15 16 15 15 17 17 17 17 17 17 17 17 17 17 17 17 17 17 16 16 16 16 16 16 16 16 16 15 15 16 15 15 15
13 15 15 16 17 18 17 17 17 16 16 16 15 15 16 16 16 17 17 17 17 17 17 17 17 16 16 16 16 16 16 16 15 15 15 15 15 15 15 15 15 15 15 15
12 14 15 16 16 16 16 16 16 16 16 16 16 16 16 16 16 16 16 16 16 16 16 16 16 16 16 16 16 15 15 15 15 15 15 15 15 15 15 15 15 15 15 15
12 13 14 15 15 16 17 16 16 17 17 16 16 16 16 16 16 16 15 15 15 16 16 16 16 16 15 15 15 15 15 15 15 15 15 15 14 14 14 14 14 14 14 14
12 13 14 15 16 17 17 17 17 17 17 16 16 15 15 15 15 15 15 15 15 15 15 15 15 15 15 15 15 15 15 15 14 14 14 14 14 14 14 14 14 13 13 13
12 13 14 15 16 16 16 16 16 16 16 16 16 15 15 15 15 15 15 15 15 15 15 15 15 15 15 15 14 14 14 14 14 14 14 14 14 14 13 13 13 13 13 13
12 13 13 14 16 16 16 16 16 16 15 15 15 15 15 15 15 15 15 15 15 15 14 15 15 15 15 14 14 14 14 14 14 14 14 14 13 13 13 13 13 13 12 12
15 15 15 15 15 16 16 16 15 15 15 15 15 15 15 14 14 14 14 14 14 14 14 14 14 14 14 14 14 14 14 14 14 14 13 13 13 13 13 13 12 12 12 12
15 14 14 15 15 15 15 15 15 15 15 15 15 14 14 14 14 14 14 14 14 14 14 14 14 14 14 14 13 13 13 13 13 13 13 13 12 12 12 12 12 12 12 12
15 14 15 15 15 15 15 15 15 14 14 14 14 14 14 14 14 14 14 14 13 13 13 13 13 13 13 13 13 13 13 13 13 12 12 12 12 12 12 11 11 11 11 11
14 14 14 14 14 14 14 14 14 14 14 14 14 14 14 14 14 14 13 13 13 13 13 13 13 13 13 13 13 12 12 12 12 12 12 12 11 11 11 11 11 11 11 11
13 13 14 14 14 14 14 14 14 14 14 14 14 14 13 13 13 13 13 13 13 13 13 13 13 13 12 12 12 12 12 12 12 12 11 11 11 11 11 11 10 10 10 10
13 13 14 14 14 14 14 14 14 14 14 13 13 13 13 13 13 13 13 12 12 12 12 12 12 12 12 12 12 12 11 11 11 11 11 11 11 11 10 10 10 10 10 10
13 13 13 13 14 13 13 13 13 13 13 13 13 13 12 12 12 12 12 12 12 12 12 12 11 11 11 11 11 11 11 11 11 11 10 10 10 10 10 10 10 10 10 9
13 13 13 13 13 13 13 13 13 13 13 13 12 12 12 12 11 11 11 11 11 11 11 11 11 11 11 11 11 11 11 10 10 10 10 10 10 10 10 9 9 9 9 9
12 13 13 13 13 13 13 13 12 12 12 12 12 12 12 11 11 11 11 11 11 11 11 11 11 11 11 10 10 10 10 10 10 10 10 10 10 9 9 9 9 9 9 9
12 12 12 12 12 12 12 12 12 12 12 12 12 12 11 11 11 11 11 11 11 11 11 11 10 10 10 10 10 10 10 10 10 10 9 9 9 9 9 9 9 9 9 8
12 12 12 12 12 12 12 12 12 12 12 11 11 11 11 11 11 11 11 11 11 11 10 10 10 10 10 10 10 10 10 9 9 9 9 9 9 9 9 9 9 8 8 8
11 11 11 11 11 11 11 11 11 11 11 11 11 11 11 11 11 11 11 11 11 10 10 10 10 10 10 10 10 9 9 9 9 9 9 9 9 9 9 8 8 8 8 8
11 11 11 11 11 11 11 11 11 11 11 11 11 11 11 11 11 11 10 10 10 10 10 10 10 10 9 9 9 9 9 9 9 9 9 9 8 8 8 8 8 8 7 7
11 11 11 11 11 11 11 11 11 11 11 11 10 10 10 10 10 10 10 10 10 10 10 10 9 9 9 9 9 9 9 8 8 8 8 8 8 8 8 8 7 7 7 7
11 11 11 11 11 11 11 11 10 11 11 10 10 10 10 10 10 10 10 10 10 9 9 9 9 9 9 9 8 8 8 8 8 8 8 8 8 7 7 7 7 7 7 6
Wind_Speed
3 3 3 3 3 4 4 6 7 8 7 7 5 4 3 2 1 1 1 1 2 2 1 2 1 1 1 2 2 2 3 4 5 4 3 2 3 3 2 3 3 3 3 3
1 1 2 2 2 4 4 4 4 3 6 4 1 1 1 1 2 2 2 1 1 1 1 2 2 2 1 1 2 2 3 4 3 2 2 2 3 3 3 3 3 3 3 3
3 3 1 3 5 5 4 3 5 6 6 2 2 2 2 2 1 2 3 2 2 3 3 2 2 2 2 1 1 2 2 2 2 2 3 3 3 3 3 4 3 3 3 3
2 2 5 7 2 3 3 2 3 3 3 4 3 2 1 1 1 1 2 2 3 2 2 1 1 1 2 2 1 1 1 1 2 2 2 2 2 3 3 3 4 4 4 4
4 4 4 5 2 3 3 3 2 3 3 2 2 3 3 2 1 1 2 2 3 2 2 1 1 2 2 2 2 1 1 2 2 2 2 2 2 3 3 3 3 3 3 3
4 4 7 7 3 1 3 3 3 4 4 3 3 0 4 3 2 2 1 1 1 1 0 0 1 1 2 1 1 2 3 3 2 2 2 2 3 3 2 2 3 3 3 3
4 4 6 5 3 1 4 7 3 3 3 3 3 4 3 2 3 2 2 2 1 0 0 1 0 1 1 1 3 4 3 2 1 1 2 2 2 2 2 2 2 2 3 3
4 3 7 3 1 5 6 1 2 2 3 3 2 1 1 1 1 2 2 2 1 0 1 2 0 1 1 2 3 2 1 1 2 2 2 1 1 2 2 2 2 2 2 3
6 6 5 4 4 4 3 2 2 2 2 3 2 2 1 1 1 1 1 2 2 1 1 2 1 2 2 4 3 1 1 2 2 2 2 1 2 2 2 2 2 2 2 3
2 5 4 4 3 1 1 2 2 2 3 3 3 2 1 2 2 1 1 2 2 1 1 3 2 1 2 3 2 1 2 2 2 2 2 2 2 2 2 3 2 2 3 3
3 5 4 4 3 1 1 1 0 1 2 3 3 2 2 2 3 3 2 2 2 2 2 3 3 2 2 2 1 1 2 2 2 2 2 2 2 2 3 3 4 3 3 3
6 7 4 6 4 2 1 1 2 1 1 1 3 3 3 3 3 3 2 2 2 1 2 3 2 3 3 2 1 1 2 2 2 2 2 2 2 2 2 3 3 3 3 3
7 5 4 5 3 2 2 2 2 3 3 2 2 3 3 3 3 3 2 2 2 2 2 2 2 2 3 1 1 1 2 3 2 2 2 2 2 2 2 2 1 1 0 1
4 2 3 4 4 3 2 2 1 1 2 2 2 2 2 3 3 3 3 3 3 2 2 2 2 3 2 1 1 1 1 2 2 2 1 1 2 2 2 2 1 2 2 2
5 4 5 3 2 2 1 1 2 0 1 1 2 2 3 3 4 4 4 3 2 1 2 2 2 4 2 1 0 1 1 1 1 1 1 1 1 0 1 1 1 0 2 2
3 2 2 2 3 2 1 2 2 3 2 2 2 2 2 2 2 2 2 1 2 2 2 2 3 3 2 0 0 1 1 1 0 0 0 1 0 0 0 1 1 1 1 1
1 1 2 2 3 3 3 3 4 3 2 2 3 2 1 0 1 1 1 1 2 2 2 2 3 3 1 1 0 0 1 1 2 1 1 1 1 1 1 1 1 1 1 1
5 5 5 5 4 3 2 1 1 2 2 2 1 0 0 1 2 3 2 0 1 1 1 2 2 1 1 1 0 0 0 0 1 0 1 1 1 1 2 2 1 1 1 1
3 3 3 2 3 3 3 2 2 2 2 1 1 1 2 2 2 2 0 1 1 1 3 2 2 1 1 1 1 1 1 1 1 1 1 1 1 1 2 2 1 1 1 1
1 1 2 2 2 2 2 2 1 1 1 2 2 1 2 2 1 1 2 1 2 3 2 1 1 1 1 1 1 1 1 1 1 1 1 1 1 1 1 1 1 1 1 0
2 1 1 1 0 1 2 2 2 2 2 2 2 3 3 2 1 2 2 1 3 2 1 1 1 1 1 1 1 1 1 1 1 1 1 1 1 1 1 1 0 0 0 0
2 1 0 1 1 0 1 1 2 2 1 1 1 2 2 1 1 1 1 2 2 1 0 0 1 1 1 1 1 1 1 1 1 1 1 1 1 1 1 1 1 0 0 0
2 1 1 0 1 1 1 1 1 2 2 2 2 2 3 2 2 2 2 2 1 1 1 0 1 2 2 1 1 1 1 1 1 1 1 1 1 1 1 1 1 1 1 1
2 1 1 1 0 1 1 2 1 1 1 1 1 2 2 1 0 1 2 1 1 2 1 1 0 1 2 2 2 1 1 1 1 1 1 1 1 1 1 1 1 0 1 1
2 1 1 0 0 1 2 1 0 1 1 1 1 1 1 2 2 1 1 2 2 2 1 0 1 1 2 2 2 1 1 1 1 1 1 1 1 1 1 1 1 1 1 1
1 1 1 1 2 2 1 1 1 1 1 0 1 1 0 0 1 1 1 1 1 1 1 0 0 1 1 1 1 1 1 1 1 1 1 1 1 1 1 1 1 1 1 1
2 1 1 2 2 1 1 1 1 1 1 1 1 1 1 0 0 1 1 1 1 1 0 0 1 1 1 1 1 1 1 1 1 2 2 2 1 1 1 1 1 1 1 1
Wind_Direction
216 227 197 213 225 187 188 190 194 225 219 241 238 226 235 246 226 123 126 136 155 170 189 175 167 191 200 203 198 190 187 203 220 225 220 215 212 211 206 215 231 227 232 236
274 259 216 226 254 210 215 203 211 214 247 252 226 149 172 196 177 179 198 210 206 187 209 213 198 203 206 206 197 181 192 216 225 211 203 214 223 214 211 221 228 219 224 234
228 289 54 242 233 210 211 212 185 208 227 188 153 183 209 197 187 222 225 229 229 224 221 226 224 196 198 205 182 171 186 210 217 209 211 219 231 230 227 229 228 232 234 230
152 113 219 242 257 188 179 229 218 204 191 178 186 198 216 154 165 268 289 281 269 259 250 242 234 217 169 145 147 188 210 214 220 217 224 228 219 230 240 235 228 227 229 226
137 185 259 287 248 171 173 262 232 171 149 129 104 55 355 3 19 281 267 289 278 254 239 227 214 194 149 140 142 174 232 230 230 218 221 226 226 235 235 231 234 229 225 226
138 169 225 238 254 201 119 264 229 166 164 159 104 84 279 313 335 331 339 346 326 293 95 184 243 152 137 163 181 228 236 239 240 225 222 231 237 241 243 236 239 235 241 242
165 206 252 255 280 110 178 235 209 176 176 168 185 211 242 286 305 317 339 347 349 29 323 270 292 116 149 233 251 255 248 235 231 235 229 234 245 244 239 234 234 241 250 259
156 190 250 269 121 181 216 229 172 184 183 179 204 224 234 252 310 335 336 344 340 153 306 309 286 149 210 270 270 273 255 252 255 259 262 272 251 259 246 225 223 242 256 277
191 216 259 273 241 246 185 177 210 206 206 171 187 246 270 264 289 312 319 317 304 240 291 301 272 200 229 268 279 276 253 263 273 275 271 263 240 250 263 242 234 248 247 259
255 277 288 293 294 301 211 202 215 195 181 171 186 215 262 281 281 285 289 295 295 279 284 288 284 276 258 273 272 263 266 268 264 259 269 272 260 244 239 237 230 236 249 256
264 279 318 318 297 278 23 76 123 159 171 176 168 199 213 245 268 270 264 273 272 261 274 285 297 294 287 281 265 262 271 276 281 271 252 246 249 245 243 249 239 224 236 236
232 235 216 256 267 240 176 190 192 182 235 235 195 206 216 234 250 254 262 267 264 259 273 283 292 296 301 311 279 255 273 268 264 264 258 246 243 287 285 253 264 239 225 221
236 245 231 255 261 249 219 230 222 204 203 220 233 217 215 236 251 263 279 273 252 235 237 261 278 295 309 318 265 248 262 267 270 270 261 246 231 230 275 325 356 298 257 186
236 224 253 255 253 260 243 229 207 210 224 218 234 237 229 238 251 253 254 245 238 235 246 256 278 288 299 317 277 273 286 294 293 276 272 254 237 223 218 228 280 343 12 43
257 238 228 237 236 242 219 146 121 177 240 264 242 226 226 229 233 239 248 246 230 237 268 285 287 292 310 317 289 297 293 301 311 305 306 278 265 248 229 221 212 14 18 26
274 284 214 189 206 208 171 168 185 224 232 229 219 228 228 227 238 257 257 193 173 226 262 277 281 290 311 337 4 324 293 305 2 11 20 35 43 100 113 126 119 74 34 21
212 244 215 204 209 209 208 210 206 214 213 213 227 229 216 204 330 307 290 236 199 224 245 256 278 306 336 9 70 295 311 348 47 63 81 90 88 114 117 115 108 81 23 33
216 219 209 199 196 189 192 194 203 202 206 222 224 120 176 210 240 259 260 208 84 14 327 297 309 353 14 12 35 15 44 42 52 63 65 77 77 93 105 110 107 96 45 43
227 221 219 185 171 165 172 194 220 229 226 184 153 202 235 243 248 257 204 114 135 265 285 303 324 8 6 9 57 95 102 100 97 90 101 100 100 100 104 105 104 103 94 71
41 103 125 135 148 163 187 201 197 222 226 183 180 220 258 259 238 189 137 160 225 236 264 309 2 29 358 10 86 114 117 121 131 127 121 127 132 129 119 114 106 104 93 72
22 52 97 115 160 212 210 201 189 208 224 200 198 216 227 242 207 159 151 234 284 265 270 340 16 345 337 1 75 106 121 132 140 146 142 145 154 163 157 144 123 116 88 92
347 348 335 145 151 257 273 210 193 196 190 206 216 197 184 199 179 150 216 224 244 219 119 34 5 352 356 27 83 101 103 110 122 137 149 152 158 180 196 194 186 168 142 135
343 355 348 280 234 270 329 308 208 185 191 210 214 198 192 200 189 176 241 259 197 160 141 183 324 338 3 74 88 90 87 85 86 112 159 168 168 190 204 203 196 187 179 169
314 305 292 298 6 33 306 291 287 263 231 227 229 220 198 184 213 232 213 203 158 152 155 196 16 39 64 92 97 95 98 107 108 116 129 134 137 151 171 171 183 193 162 147
282 283 306 336 262 255 259 266 333 5 17 359 338 322 243 190 191 226 181 154 150 143 139 105 72 71 83 97 106 112 119 133 135 137 143 145 145 142 154 157 159 146 129 131
296 286 277 251 245 253 249 200 194 246 206 258 326 320 294 186 167 168 131 131 137 152 173 160 92 107 104 91 83 86 96 98 105 110 118 117 117 123 125 121 105 101 96 86
293 300 314 311 299 251 202 195 205 236 214 193 242 287 269 238 132 145 148 143 133 138 155 113 113 127 128 124 119 115 106 100 105 114 110 102 95 96 101 113 114 115 104 97
Height
1486 1483 1483 1483 1484 1486 1490 1494 1499 1494 1491 1484 1481 1480 1479 1480 1480 1480 1480 1480 1481 1482 1483 1484 1486 1487 1489 1490 1491 1492 1493 1494 1495 1496 1497 1498 1498 1499 1499 1501 1501 1502 1503 1503
1487 1483 1482 1484 1482 1482 1484 1486 1488 1487 1487 1479 1479 1479 1479 1479 1479 1479 1479 1480 1480 1481 1482 1483 1484 1486 1487 1488 1489 1490 1491 1492 1493 1493 1494 1494 1494 1495 1496 1496 1497 1498 1499 1500
1495 1487 1483 1490 1482 1481 1481 1480 1482 1485 1481 1477 1478 1478 1478 1478 1479 1478 1479 1479 1480 1480 1481 1482 1483 1484 1485 1486 1487 1488 1488 1489 1490 1490 1490 1491 1491 1492 1492 1493 1493 1494 1495 1495
1498 1493 1499 1487 1475 1475 1478 1477 1476 1476 1476 1476 1476 1478 1478 1478 1478 1479 1479 1480 1480 1480 1480 1481 1482 1483 1484 1484 1485 1485 1486 1486 1487 1487 1487 1487 1488 1488 1489 1489 1490 1490 1491 1491
1501 1500 1492 1482 1475 1475 1477 1478 1474 1474 1475 1476 1476 1476 1477 1477 1478 1478 1479 1479 1480 1479 1479 1480 1480 1481 1481 1481 1482 1482 1482 1483 1483 1484 1484 1484 1484 1485 1486 1486 1486 1487 1487 1487
1499 1497 1498 1482 1472 1470 1475 1480 1473 1472 1473 1475 1475 1480 1478 1476 1476 1477 1477 1478 1478 1478 1478 1478 1478 1479 1479 1479 1479 1479 1479 1480 1480 1481 1481 1481 1481 1482 1482 1483 1483 1483 1483 1483
1495 1494 1487 1473 1470 1470 1483 1478 1470 1470 1472 1473 1474 1476 1476 1475 1475 1475 1476 1476 1476 1476 1476 1476 1476 1477 1477 1477 1477 1477 1477 1477 1478 1478 1478 1478 1478 1478 1478 1479 1479 1478 1479 1479
1494 1494 1488 1469 1469 1472 1471 1467 1468 1469 1470 1471 1472 1473 1473 1474 1474 1474 1474 1474 1475 1475 1474 1474 1475 1475 1474 1474 1475 1475 1475 1475 1475 1475 1475 1475 1475 1475 1475 1475 1474 1474 1475 1475
1484 1483 1472 1469 1468 1467 1466 1466 1467 1468 1469 1470 1471 1472 1473 1473 1473 1473 1473 1473 1473 1473 1473 1473 1473 1473 1472 1472 1473 1473 1472 1472 1472 1472 1472 1472 1472 1471 1471 1471 1471 1471 1470 1470
1478 1473 1469 1467 1466 1465 1466 1466 1467 1468 1468 1469 1470 1471 1472 1472 1472 1471 1472 1472 1472 1471 1471 1471 1470 1470 1470 1471 1470 1470 1469 1469 1469 1468 1468 1468 1468 1468 1468 1467 1467 1466 1467 1466
1476 1471 1468 1466 1465 1465 1466 1466 1467 1468 1468 1468 1469 1469 1469 1470 1471 1470 1469 1470 1470 1469 1468 1468 1468 1468 1468 1468 1468 1467 1466 1466 1466 1466 1465 1465 1465 1465 1464 1464 1464 1463 1462 1462
1473 1468 1468 1466 1465 1466 1466 1466 1467 1467 1467 1467 1468 1468 1468 1468 1468 1468 1468 1468 1467 1467 1467 1467 1466 1466 1465 1465 1465 1464 1464 1464 1463 1463 1462 1462 1461 1461 1461 1462 1462 1461 1460 1460
1466 1465 1465 1464 1464 1465 1465 1465 1466 1466 1466 1466 1466 1467 1467 1466 1467 1466 1466 1466 1465 1465 1465 1465 1464 1464 1463 1463 1463 1462 1462 1461 1460 1460 1459 1459 1459 1458 1458 1459 1459 1458 1458 1457
1463 1463 1462 1462 1462 1463 1464 1464 1464 1465 1465 1465 1465 1465 1465 1464 1464 1464 1464 1464 1464 1464 1464 1463 1463 1462 1461 1461 1461 1461 1460 1459 1458 1458 1457 1457 1456 1456 1456 1456 1456 1455 1456 1456
1460 1460 1460 1460 1461 1461 1462 1462 1462 1463 1463 1463 1463 1463 1462 1462 1461 1462 1462 1462 1462 1462 1462 1461 1461 1460 1460 1460 1459 1459 1458 1457 1456 1456 1455 1455 1455 1454 1454 1454 1454 1454 1454 1454
1458 1458 1458 1458 1458 1459 1460 1460 1460 1461 1461 1461 1461 1461 1460 1460 1460 1460 1460 1460 1460 1459 1459 1459 1459 1459 1458 1458 1458 1457 1456 1456 1455 1455 1454 1454 1454 1453 1453 1453 1453 1452 1452 1452
1456 1456 1456 1456 1456 1457 1457 1458 1458 1459 1459 1459 1459 1459 1459 1458 1458 1458 1458 1458 1458 1457 1457 1457 1457 1457 1457 1456 1456 1456 1455 1455 1454 1454 1454 1453 1453 1453 1452 1452 1452 1452 1452 1451
1454 1454 1454 1454 1455 1455 1456 1457 1457 1457 1457 1458 1458 1457 1457 1456 1456 1456 1456 1456 1456 1456 1456 1456 1456 1455 1455 1455 1455 1454 1454 1454 1454 1454 1453 1453 1453 1453 1452 1452 1452 1451 1451 1451
1452 1452 1453 1453 1454 1454 1455 1455 1456 1456 1456 1456 1456 1456 1455 1455 1455 1455 1455 1455 1454 1454 1455 1455 1455 1454 1454 1453 1453 1453 1453 1453 1453 1453 1452 1452 1452 1452 1452 1452 1451 1451 1451 1451
1451 1451 1452 1452 1453 1454 1454 1454 1454 1455 1455 1455 1455 1454 1454 1454 1454 1453 1453 1453 1453 1453 1454 1454 1453 1453 1453 1452 1452 1451 1451 1452 1452 1452 1451 1451 1451 1451 1451 1451 1451 1451 1451 1450
1451 1451 1451 1452 1452 1453 1453 1454 1454 1454 1454 1453 1453 1453 1453 1453 1453 1453 1452 1452 1453 1453 1453 1452 1452 1452 1452 1452 1451 1450 1450 1450 1450 1450 1451 1451 1451 1451 1451 1451 1451 1451 1450 1450
1451 1451 1451 1452 1452 1452 1452 1453 1453 1453 1453 1453 1453 1453 1452 1452 1452 1452 1452 1452 1452 1452 1452 1452 1452 1452 1451 1451 1451 1450 1450 1450 1449 1450 1450 1450 1450 1450 1450 1450 1450 1450 1450 1450
1452 1452 1452 1452 1452 1452 1452 1452 1452 1452 1452 1452 1452 1452 1451 1451 1451 1451 1451 1452 1451 1452 1452 1452 1452 1451 1451 1450 1450 1450 1449 1449 1449 1449 1449 1449 1449 1449 1449 1449 1449 1449 1449 1449
1452 1452 1452 1452 1452 1451 1451 1451 1451 1451 1451 1451 1451 1451 1450 1450 1450 1450 1451 1451 1451 1451 1451 1452 1451 1451 1450 1450 1450 1449 1449 1449 1449 1448 1448 1448 1448 1448 1448 1448 1448 1448 1448 1448
1453 1452 1452 1451 1451 1451 1451 1451 1451 1450 1450 1450 1450 1450 1450 1450 1450 1450 1450 1450 1451 1451 1451 1451 1451 1450 1450 1449 1449 1449 1449 1449 1448 1448 1448 1448 1448 1448 1447 1447 1447 1447 1447 1446
1452 1451 1451 1451 1451 1451 1450 1450 1450 1450 1450 1450 1449 1449 1449 1449 1449 1449 1450 1450 1450 1450 1450 1450 1450 1450 1449 1449 1449 1448 1448 1448 1448 1447 1447 1447 1447 1447 1447 1447 1446 1446 1446 1445
1451 1451 1451 1450 1450 1450 1449 1449 1449 1449 1449 1449 1449 1449 1449 1449 1449 1449 1449 1449 1449 1449 1450 1450 1449 1449 1449 1448 1448 1448 1448 1447 1447 1447 1447 1446 1446 1446 1446 1446 1445 1445 1444 1443